7 * 24
多渠道服务支持
STARLINK-31867 是 SpaceX Starlink 卫星互联网项目中的一颗低轨卫星,属于第二代 Starlink 卫星(v1.5 或 v2 型号)。该卫星由猎鹰 9 号火箭发射入轨,旨在为全球用户提供高速、低延迟的宽带互联网服务。它运行在约 550 公里的轨道高度,采用先进推进系统和激光通信技术,以提升网络性能和卫星间通信效率。STARLINK-31867 代表了 SpaceX 在构建全球卫星互联网基础设施方面的重要进展。
美国
(US)
| 数据来源 | 国际轨道数据 |
| 星历时间: | 2025-12-19T13:02:47+0800 21小时前 查看轨道信息 |
| 半长轴: | 6837.176km |
| 偏心率: | 0.0003321 |
| 轨道倾角: | 53.161° |
| 近地点辐角 | 55.624° |
| 升交点赤经 | 332.390° |
| 平近点角 | 304.508° |
| 近地点: | 456.768km |
| 远地点: | 461.31km |
| 周期: | 93.772分钟 |
| 每日圈数: | 15.356339 |